[[{"header":{"parameterUnit":"m.s-1","parameterCategory":1,"la1":30.2991,"la2":30.254,"lo1":-89.0895,"lo2":-89.0444,"dy":0.0017,"dx":0.0017,"nx":28,"ny":28,"refTime":"2024-12-11T09:00:00:Z","depth":0,"parameterNumber":2,"parameterNumberName":"U-component_of_WINDS"},"data":[0,0,0,0,0,0,0,0,0,0,0,0,0,0,0,0,0,0,0,0,0,0,0,0,0,0,0,0,0,0,0,0,0,0,0,0,0,0,0,0,0,0,0,0,0,0,0,0,0,0,0,0,0,0,0,0,0,0,5.1856,5.1857,0,5.1956,5.1957,5.1958,5.1908,5.1906,5.1903,5.1901,5.2001,5.2006,5.2011,0,0,0,0,0,0,0,0,0,0,0,0,0,5.1623,5.1628,5.1856,5.1857,5.1859,5.1956,5.1957,5.1958,5.1909,5.1905,5.1902,5.1899,5.2,5.2006,5.2012,0,0,0,0,0,0,0,0,0,0,0,0,0,5.1724,5.1629,5.1856,5.1846,5.1846,5.1956,5.1957,5.1959,5.1909,5.1905,5.1902,5.1898,5.1998,5.2005,5.2013,5.2138,0,0,5.2036,5.2039,0,0,0,0,0,0,0,0,5.1718,5.1732,5.1846,5.1846,5.1847,5.1916,5.1912,5.2019,5.191,5.1885,5.19,5.1896,5.1976,5.1985,5.2012,5.2143,5.2147,5.2037,5.2041,5.2045,5.2047,0,0,0,0,0,0,0,5.1711,5.1728,5.1896,5.1848,5.1848,5.1836,5.1846,5.1932,5.1951,5.1887,5.1884,5.1896,5.1975,5.2005,5.2014,5.2148,5.2036,5.2043,5.2048,5.2051,5.239,5.2394,0,0,0,0,0,0,5.1705,5.1722,5.1892,5.1899,5.1772,5.1844,5.1855,5.1897,5.195,5.1954,5.1899,5.1893,5.1994,5.2005,5.2018,5.217,5.2044,5.2052,5.2056,5.2385,5.2391,5.2395,0,0,0,0,0,0,5.17,5.172,5.1888,5.181,5.183,5.1852,5.19,5.1901,5.1931,5.1959,5.1963,5.1926,5.1991,5.2007,5.2109,5.2172,5.2055,5.2062,5.238,5.2387,5.2393,5.2473,0,0,0,0,0,0,5.1694,5.1719,5.1766,5.1811,5.1835,5.1978,5.1904,5.1906,5.1945,5.1938,5.1985,5.1989,5.1989,5.2098,5.2117,5.2181,5.2068,5.2375,5.2383,5.2391,5.2465,5.2482,5.2496,0,0,0,0,0,5.1685,5.1784,5.1769,5.179,5.1894,5.1982,5.1995,5.1993,5.195,5.1998,5.2017,5.1988,5.2163,5.2109,5.213,5.2197,5.2371,5.2381,5.239,5.2458,5.2479,5.2496,0,0,0,0,0,0,5.1745,5.179,5.1773,5.189,5.1933,5.1973,5.2034,5.2015,5.207,5.2062,5.2057,5.2068,5.2175,5.2196,5.2135,5.2322,5.226,5.2274,5.2304,5.2324,5.2339,5.2332,5.2074,0,0,0,0,0,5.1772,5.184,5.1875,5.1974,5.1997,5.2012,5.205,5.2045,5.2089,5.2107,5.2133,5.2176,5.2241,5.2284,5.2345,5.2468,5.2479,5.2525,5.2541,5.2553,5.2566,5.2635,5.2656,5.2428,5.2428,5.2428,0,0,5.1828,5.1861,5.1903,5.1987,5.2019,5.209,5.2027,5.2104,5.2156,5.2118,5.2217,5.2238,5.2286,5.2401,5.2452,5.2421,5.2631,5.2566,5.2576,5.2581,5.2647,5.2669,5.2688,5.2435,5.2433,5.2432,0,0,5.1966,5.1997,5.2084,5.2119,5.217,5.218,5.2201,5.2245,5.2258,5.2358,5.2331,5.2394,5.2505,5.2541,5.2574,5.273,5.2706,5.275,5.2831,5.2898,5.2916,5.2932,5.2989,5.3009,5.2762,5.2763,5.2763,0,5.2028,5.2133,5.2131,5.2211,5.2249,5.2219,5.2308,5.2342,5.241,5.2437,5.2402,5.2544,5.2574,5.2697,5.2736,5.2763,5.2788,5.2744,5.2914,5.293,5.2945,5.2999,5.302,5.2768,5.2767,5.2767,5.2766,0,5.2209,5.2283,5.2347,5.2415,5.2461,5.2544,5.2555,5.2602,5.2594,5.2608,5.2711,5.2747,5.2816,5.2845,5.2837,5.2968,5.2948,5.2914,5.2851,5.2972,5.3022,5.3043,5.2775,5.2773,5.2772,5.277,0,0,5.2385,5.2453,5.2477,5.2508,5.2564,5.2621,5.2704,5.2773,5.2813,5.2862,5.2932,5.3029,5.2999,5.3037,5.3033,5.3092,5.3215,5.3051,5.3052,5.3081,5.3364,5.3389,5.3413,5.32,5.3204,5.3207,5.336,0,5.2527,5.2673,5.2675,5.281,5.2879,5.2853,5.2926,5.2969,5.2985,5.3046,5.3064,5.3133,5.3087,5.311,5.3167,5.3188,5.3272,5.3177,5.3266,5.3269,5.3255,5.3439,5.3466,5.3608,5.338,5.3383,5.3385,0,5.2712,5.2769,5.2911,5.2959,5.2988,5.3053,5.3118,5.3176,5.3225,5.3232,5.3277,5.3265,5.3351,5.3286,5.3406,5.3341,5.3378,5.3394,5.34,5.3407,5.3334,5.3453,5.3653,5.3675,5.3416,5.3414,5.3412,0,5.2828,5.2939,5.3039,5.3067,5.3125,5.3172,5.3199,5.3243,5.3285,5.3342,5.3369,5.3435,5.3471,5.3522,5.3529,5.3481,5.3649,5.3585,5.3659,5.3659,5.3695,5.3692,5.3904,5.3719,5.3718,5.3718,5.3717,0,5.2986,5.3075,5.3092,5.3154,5.3253,5.3254,5.3352,5.3375,5.3415,5.3481,5.3463,5.3525,5.3531,5.3595,5.3602,5.37,5.3716,5.3726,5.3726,5.3727,5.3726,5.3751,5.3741,5.3723,5.3722,5.3721,5.372,0,5.3132,5.3147,5.3255,5.3302,5.3316,5.3387,5.3427,5.3487,5.3502,5.3586,5.3606,5.363,5.3706,5.3718,5.3806,5.381,5.3929,5.3919,5.3913,5.3912,5.3986,5.3979,5.4221,5.4253,5.4046,5.4048,5.405,0,5.3232,5.3299,5.3355,5.3398,5.3428,5.3497,5.3541,5.3546,5.3592,5.3654,5.3707,5.3781,5.384,5.3962,5.3987,5.4055,5.4047,5.4127,5.4057,5.4057,5.4049,5.4045,5.4053,5.4141,5.4143,5.4145,5.4146,0,5.3409,5.3414,5.3477,5.3545,5.3598,5.365,5.37,5.3737,5.3749,5.3802,5.388,5.3926,5.4018,5.4091,5.416,5.4187,5.417,5.4169,5.4189,5.4191,5.4185,5.419,5.395,5.4163,5.4161,5.416,5.4159,5.4158,5.3535,5.3595,5.3644,5.3716,5.3755,5.3803,5.3862,5.3886,5.395,5.4026,5.4025,5.4111,5.416,5.425,5.4282,5.4349,5.4324,5.4353,5.4361,5.4369,5.4376,5.4175,5.4362,5.4361,5.4361,5.4361,5.436,0,5.3711,5.3742,5.3809,5.3881,5.3938,5.3918,5.3973,5.4022,5.4098,5.4146,5.4205,5.4295,5.4368,5.44,5.4472,5.452,5.4514,5.4539,5.4535,5.4542,5.4395,5.437,5.4542,5.4542,5.4542,5.4542,5.4542,5.4542,5.381,5.3911,5.3922,5.4042,5.4073,5.4157,5.4191,5.4235,5.4274,5.4376,5.4436,5.4457,5.45,5.4575,5.4641,5.4648,5.4676,5.4705,5.4709,5.457,5.4552,5.4534,5.4511,5.4711,5.4711,5.4851,5.4852,5.4853]},{"header":{"parameterUnit":"m.s-1","parameterCategory":1,"la1":30.2991,"la2":30.254,"lo1":-89.0895,"lo2":-89.0444,"dy":0.0017,"dx":0.0017,"nx":28,"ny":28,"refTime":"2024-12-11T09:00:00:Z","depth":0,"parameterNumber":3,"parameterNumberName":"V-component_of_WINDS"},"data":[0,0,0,0,0,0,0,0,0,0,0,0,0,0,0,0,0,0,0,0,0,0,0,0,0,0,0,0,0,0,0,0,0,0,0,0,0,0,0,0,0,0,0,0,0,0,0,0,0,0,0,0,0,0,0,0,0,0,-7.4257,-7.4259,0,-7.4459,-7.4461,-7.4464,-7.4413,-7.4409,-7.4405,-7.4402,-7.4608,-7.4616,-7.4626,0,0,0,0,0,0,0,0,0,0,0,0,0,-7.3829,-7.3837,-7.4257,-7.4259,-7.4262,-7.4459,-7.4461,-7.4464,-7.4414,-7.4409,-7.4404,-7.44,-7.4605,-7.4615,-7.4626,0,0,0,0,0,0,0,0,0,0,0,0,0,-7.4021,-7.3839,-7.4256,-7.4261,-7.4263,-7.4458,-7.4462,-7.4465,-7.4415,-7.4409,-7.4403,-7.4398,-7.4601,-7.4614,-7.4628,-7.4831,0,0,-7.467,-7.4676,0,0,0,0,0,0,0,0,-7.401,-7.4037,-7.4257,-7.4261,-7.4264,-7.4405,-7.4386,-7.4588,-7.4416,-7.4357,-7.4401,-7.4395,-7.4545,-7.4563,-7.4614,-7.4841,-7.485,-7.4671,-7.4679,-7.4685,-7.4689,0,0,0,0,0,0,0,-7.3997,-7.4028,-7.4337,-7.4261,-7.4265,-7.4253,-7.4273,-7.4424,-7.4482,-7.4362,-7.4359,-7.4383,-7.4545,-7.4601,-7.4618,-7.4853,-7.4671,-7.4683,-7.4691,-7.4697,-7.5259,-7.5266,0,0,0,0,0,0,-7.3981,-7.4017,-7.433,-7.4343,-7.412,-7.4265,-7.4288,-7.4366,-7.448,-7.4492,-7.4388,-7.438,-7.458,-7.4602,-7.4625,-7.4873,-7.4685,-7.4698,-7.4706,-7.5253,-7.5261,-7.5268,0,0,0,0,0,0,-7.3972,-7.4009,-7.4322,-7.4179,-7.4218,-7.4279,-7.4366,-7.4373,-7.4428,-7.45,-7.451,-7.4434,-7.4576,-7.4606,-7.4781,-7.4879,-7.4704,-7.4717,-7.5245,-7.5255,-7.5264,-7.5368,0,0,0,0,0,0,-7.396,-7.4006,-7.4084,-7.4181,-7.4226,-7.4475,-7.4372,-7.4381,-7.4452,-7.4443,-7.4545,-7.4557,-7.4574,-7.4761,-7.4795,-7.4895,-7.4728,-7.5236,-7.5249,-7.5261,-7.5356,-7.538,-7.5401,0,0,0,0,0,-7.3945,-7.4104,-7.4088,-7.4126,-7.4324,-7.448,-7.4506,-7.4523,-7.446,-7.4539,-7.4585,-7.4553,-7.4863,-7.4779,-7.4817,-7.4923,-7.523,-7.5246,-7.526,-7.5346,-7.5376,-7.5401,0,0,0,0,0,0,-7.4016,-7.4117,-7.41,-7.4296,-7.438,-7.4472,-7.4571,-7.4553,-7.4657,-7.4644,-7.466,-7.4684,-7.4863,-7.491,-7.4815,-7.5127,-7.5037,-7.5061,-7.509,-7.5118,-7.514,-7.5126,-7.4739,0,0,0,0,0,-7.4055,-7.4173,-7.4255,-7.442,-7.4463,-7.451,-7.4579,-7.4585,-7.4672,-7.4708,-7.4767,-7.4853,-7.497,-7.5046,-7.5158,-7.5362,-7.5385,-7.5454,-7.5476,-7.5494,-7.5515,-7.5629,-7.5661,-7.5317,-7.5317,-7.5317,0,0,-7.4136,-7.4205,-7.4279,-7.4436,-7.4502,-7.4625,-7.454,-7.4673,-7.4765,-7.4728,-7.4897,-7.4944,-7.5041,-7.5233,-7.532,-7.5278,-7.5615,-7.5514,-7.5528,-7.5538,-7.5648,-7.568,-7.5709,-7.5328,-7.5326,-7.5324,0,0,-7.4346,-7.441,-7.4556,-7.4624,-7.4725,-7.4756,-7.4791,-7.4886,-7.4916,-7.5087,-7.5062,-7.5171,-7.5371,-7.5443,-7.5505,-7.5745,-7.572,-7.5781,-7.5899,-7.601,-7.6037,-7.6061,-7.6148,-7.6179,-7.58,-7.5801,-7.5801,0,-7.4434,-7.4618,-7.4633,-7.4769,-7.484,-7.4813,-7.4961,-7.5026,-7.5159,-7.5208,-7.5158,-7.5411,-7.5474,-7.5683,-7.5742,-7.5793,-7.5835,-7.5769,-7.6032,-7.6056,-7.6079,-7.6162,-7.6195,-7.5808,-7.5807,-7.5806,-7.5805,0,-7.4722,-7.485,-7.4956,-7.5086,-7.5168,-7.5309,-7.5347,-7.5428,-7.5427,-7.5464,-7.5639,-7.5714,-7.5842,-7.5891,-7.5891,-7.6101,-7.6072,-7.6027,-7.5938,-7.6118,-7.6197,-7.6229,-7.5817,-7.5815,-7.5813,-7.5811,0,0,-7.4983,-7.512,-7.5159,-7.5218,-7.5329,-7.5429,-7.557,-7.5695,-7.5766,-7.5858,-7.5978,-7.6149,-7.6109,-7.618,-7.6187,-7.6285,-7.6473,-7.6228,-7.6231,-7.6273,-7.6712,-7.6746,-7.6783,-7.6457,-7.6463,-7.6468,-7.6704,0,-7.5204,-7.5453,-7.5472,-7.5696,-7.5816,-7.5793,-7.5916,-7.5998,-7.6036,-7.6143,-7.6185,-7.6307,-7.6243,-7.6287,-7.6382,-7.643,-7.6562,-7.6413,-7.657,-7.6575,-7.6547,-7.6824,-7.686,-7.708,-7.6735,-7.674,-7.6744,0,-7.5496,-7.5599,-7.5836,-7.5932,-7.5983,-7.6093,-7.6211,-7.6314,-7.6406,-7.6427,-7.6508,-7.6503,-7.6649,-7.6554,-7.6756,-7.6654,-7.672,-7.6753,-7.6762,-7.6778,-7.6671,-7.6849,-7.715,-7.7183,-7.6792,-7.6788,-7.6785,0,-7.5665,-7.5863,-7.6031,-7.6082,-7.6198,-7.6276,-7.6328,-7.6415,-7.649,-7.6592,-7.6641,-7.6759,-7.6824,-7.6916,-7.6943,-7.6871,-7.7146,-7.7052,-7.7168,-7.7168,-7.7228,-7.7224,-7.7544,-7.7267,-7.7267,-7.7266,-7.7265,0,-7.5912,-7.6058,-7.6109,-7.6212,-7.6376,-7.6396,-7.6558,-7.6605,-7.6683,-7.6796,-7.6782,-7.6888,-7.6917,-7.7029,-7.7051,-7.7217,-7.7246,-7.7267,-7.7272,-7.727,-7.7268,-7.7314,-7.73,-7.7275,-7.7273,-7.7271,-7.727,0,-7.6128,-7.6168,-7.635,-7.6445,-7.6472,-7.6589,-7.6671,-7.6771,-7.6807,-7.6951,-7.6985,-7.7043,-7.7174,-7.721,-7.7367,-7.7382,-7.7577,-7.7566,-7.7546,-7.7547,-7.7662,-7.7651,-7.8024,-7.8075,-7.7763,-7.7766,-7.7768,0,-7.6284,-7.6396,-7.6504,-7.6579,-7.6635,-7.6755,-7.6832,-7.6857,-7.6937,-7.7053,-7.714,-7.7269,-7.7374,-7.7585,-7.7641,-7.7761,-7.7755,-7.7877,-7.7773,-7.7768,-7.7759,-7.7753,-7.7765,-7.7897,-7.7901,-7.7903,-7.7906,0,-7.6557,-7.6571,-7.6682,-7.6802,-7.6894,-7.6989,-7.708,-7.7142,-7.718,-7.7271,-7.7406,-7.7488,-7.7649,-7.7779,-7.7901,-7.7954,-7.7938,-7.7938,-7.7972,-7.7971,-7.7956,-7.7968,-7.7602,-7.793,-7.7927,-7.7925,-7.7924,-7.7923,-7.6749,-7.6849,-7.6941,-7.7066,-7.7137,-7.7223,-7.7323,-7.7373,-7.7485,-7.7619,-7.7626,-7.7773,-7.7865,-7.8028,-7.8088,-7.8203,-7.8167,-7.8215,-7.8228,-7.824,-7.825,-7.7937,-7.8225,-7.8225,-7.8224,-7.8224,-7.8223,0,-7.7023,-7.7081,-7.7196,-7.7325,-7.7424,-7.7399,-7.7499,-7.7584,-7.7714,-7.78,-7.7905,-7.8061,-7.8187,-7.8253,-7.8379,-7.8459,-7.8454,-7.8491,-7.8486,-7.8499,-7.8275,-7.8234,-7.8493,-7.8493,-7.8492,-7.8492,-7.8492,-7.8492,-7.7177,-7.7345,-7.7371,-7.7575,-7.7633,-7.7777,-7.7836,-7.7916,-7.7986,-7.8161,-7.8266,-7.8308,-7.8388,-7.852,-7.8635,-7.8651,-7.8699,-7.874,-7.8753,-7.8542,-7.8515,-7.8488,-7.845,-7.875,-7.875,-7.8968,-7.897,-7.8971]}]]